Voltar ao catálogo

DELTA 1 DEB

AtivoSSO
NORAD 10662·DEBRIS·🇺🇸 United States

Lançado Jul 29, 1976 de Vandenberg Space Force Base

Loading…

Próximas Passagens (próximas 24 horas)

TLE

AtualizadoSource: Space-Track

Época: Sep 14, 2026, 15:18 UTC

1 10662U 76077Y   26257.63798404  .00000582  00000-0  20299-2 0  9994
2 10662 100.8065 307.7855 0244515   6.8107 146.5284 12.92257829348850

Acompanhe DELTA 1 DEB em tempo real com AllMySat

Download on the App Store